Tracking 30923 objects as of 30-Jun-2025
HD Live streaming from Space Station
objects crossing your sky now

FENGYUN 2E DEB

Track FENGYUN 2E DEB now!


NORAD ID: 40987
Int'l Code: 2008-066D
Perigee: 34,978.5 km
Apogee: 36,665.4 km
Inclination: 9.5 °
Period: 1,437.5 minutes
Semi major axis: 42192 km
RCS: Unknown
Launch date: December 23, 2008
Source: People's Republic of China (PRC)
Launch site: Xichang Space Center, China (XSC)

Note: This is SATELLITE DEBRIS
Your satellite tracking list
Your tracking list is empty




NASA's NSSDC Master Catalog

Two Line Element Set (TLE):
1 40987U 08066D   25180.15051116 -.00000170  00000-0  00000-0 0  9993
2 40987   9.4510  47.6069 0199911   9.1253 351.2243  1.00171207 58924
Source of the keplerian elements: AFSPC